Rockford, IL

12:37 PM CST on November 24, 2017 (GMT -0600)
Greater Rockford

Weather History for KRFD - October, 2011

Change the Weather History Date:

Tuesday, October 25, 2011

  Actual Average Record
Temperature  
Mean Temperature 59 °F 49 °F  
Max Temperature 71 °F 59 °F 78 °F (1989)
Min Temperature 47 °F 38 °F 23 °F (1987)
Degree Days  
Heating Degree Days 6 16  
Month to date heating degree days 230 314  
Since 1 July heating degree days 396 445  
Cooling Degree Days 0 0  
Month to date cooling degree days 14 8  
Year to date cooling degree days 1019 819  
Growing Degree Days 8 (Base 50)    
Moisture  
Dew Point 46 °F    
Average Humidity 65    
Maximum Humidity 83    
Minimum Humidity 47    
Precipitation  
Precipitation 0.03 in 0.09 in 1.55 in (1939)
Month to date precipitation 1.52 2.15  
Year to date precipitation 32.89 31.16  
Snow  
Snow 0.00 in 0.10 in 0.10 in (1962)
Month to date snowfall 0.0 0.1  
Since 1 July snowfall 0.0 0.1  
Since 1 September snowfall 0.0 0.1  
Snow Depth -    
Sea Level Pressure  
Sea Level Pressure 29.88 in    
Wind  
Wind Speed 11 mph (SE)    
Max Wind Speed 23 mph    
Max Gust Speed 29 mph    
Visibility 10 miles    
Events Rain    
T = Trace of Precipitation, MM = Missing Value Source: NWS Daily Summary

Daily Weather History Graph

Daily Weather History Graph

Search for Another Location

Airport or City:

Trip Planner

Search our weather history database for the weather conditions in past years. The results will help you decide how hot, cold, wet, or windy it might be!

Date:

Astronomy

Oct. 25, 2011 Rise Set
Actual Time 7:20 AM CDT 5:59 PM CDT
Civil Twilight 6:51 AM CDT 6:28 PM CDT
Nautical Twilight 6:19 AM CDT 7:01 PM CDT
Astronomical Twilight 5:46 AM CDT 7:33 PM CDT
Moon 5:52 AM CDT (10/25) 5:01 PM CDT (10/25)
Length of Visible Light 11h 36m
Length of Day
10h 39m
Waning Crescent, 2% of the Moon is Illuminated
Oct 25
Waning Crescent
Oct 26
New
Nov 2
First Quarter
Nov 10
Full
Nov 18
Last Quarter

Hourly Weather History & Observations

Time (CDT) Temp. Dew Point Humidity Pressure Visibility Wind Dir Wind Speed Gust Speed Precip Events Conditions
12:54 AM 46.9 °F 37.9 °F 71% 30.10 in 10.0 mi South 3.5 mph - N/A   Overcast
1:54 AM 48.2 °F 37.4 °F 66% 30.08 in 10.0 mi SSE 4.6 mph - N/A   Overcast
2:54 AM 50.0 °F 39.2 °F 66% 30.05 in 10.0 mi SSE 6.9 mph - N/A   Overcast
3:54 AM 53.1 °F 39.9 °F 61% 30.03 in 10.0 mi South 12.7 mph - N/A   Overcast
4:54 AM 53.1 °F 37.9 °F 57% 29.99 in 10.0 mi South 13.8 mph - 0.00 in   Overcast
5:54 AM 55.9 °F 37.0 °F 49% 29.97 in 10.0 mi South 12.7 mph - N/A   Overcast
6:54 AM 54.0 °F 39.0 °F 57% 29.96 in 10.0 mi South 12.7 mph - N/A   Overcast
7:54 AM 54.0 °F 39.9 °F 59% 29.96 in 10.0 mi South 13.8 mph - N/A   Overcast
8:54 AM 54.0 °F 42.1 °F 64% 29.99 in 10.0 mi SE 4.6 mph - 0.00 in Rain Light Rain
9:54 AM 53.1 °F 45.0 °F 74% 29.95 in 10.0 mi SE 9.2 mph - 0.01 in   Overcast
10:54 AM 55.0 °F 48.0 °F 77% 29.93 in 10.0 mi South 16.1 mph - 0.02 in Rain Light Rain
11:54 AM 57.9 °F 51.1 °F 78% 29.87 in 10.0 mi South 12.7 mph - 0.00 in   Overcast
12:54 PM 62.1 °F 52.0 °F 70% 29.84 in 10.0 mi South 15.0 mph - N/A   Overcast
1:54 PM 66.2 °F 50.0 °F 56% 29.79 in 10.0 mi South 19.6 mph 26.5 mph N/A   Mostly Cloudy
2:54 PM 69.1 °F 48.9 °F 49% 29.76 in 10.0 mi South 13.8 mph - N/A   Mostly Cloudy
3:54 PM 69.1 °F 51.1 °F 53% 29.74 in 10.0 mi South 6.9 mph - N/A   Overcast
4:54 PM 68.0 °F 48.0 °F 49% 29.73 in 10.0 mi Calm Calm - N/A   Overcast
5:54 PM 64.0 °F 51.1 °F 63% 29.75 in 10.0 mi NE 3.5 mph - N/A   Overcast
6:54 PM 62.1 °F 52.0 °F 70% 29.75 in 10.0 mi NE 3.5 mph - N/A   Overcast
7:54 PM 60.8 °F 53.6 °F 77% 29.75 in 10.0 mi NNE 8.1 mph - N/A   Overcast
8:54 PM 60.1 °F 50.0 °F 69% 29.75 in 10.0 mi ENE 8.1 mph - 0.00 in   Mostly Cloudy
9:54 PM 55.9 °F 48.0 °F 75% 29.79 in 10.0 mi NNE 13.8 mph - N/A   Mostly Cloudy
10:54 PM 54.0 °F 48.0 °F 80% 29.80 in 10.0 mi NNE 15.0 mph - N/A   Overcast
11:54 PM 52.0 °F 46.9 °F 83% 29.80 in 10.0 mi NE 15.0 mph - N/A   Overcast